Regional Weather Roundup
Issued by NWS

Home | Current Version | Previous Version | Graphics & Text | Print | Product List | Glossary On
Versions: 1 2 3 4 5 6 7 8 9 10 11 12 13 14 15 16 17 18 19 20 21 22 23 24 25 26 27 28 29 30 31 32 33 34 35 36 37 38 39 40 41 42 43 44 45 46 47 48 49 50
000
ASUS43 KMKX 272313
RWRWI

WISCONSIN REGIONAL WEATHER ROUNDUP
NATIONAL WEATHER SERVICE MILWAUKEE/SULLIVAN WI
600 PM CDT WED MAY 27 2015

NOTE: "FAIR" INDICATES FEW OR NO CLOUDS BELOW 12,000 FEET WITH NO
SIGNIFICANT WEATHER AND/OR OBSTRUCTIONS TO VISIBILITY.

WIZ001-002-006>008-014>016-023>028-280000-
NORTHWEST WISCONSIN

CITY           SKY/WX    TMP DP  RH WIND       PRES   REMARKS
SUPERIOR ARPT  PTSUNNY   83  47  27 NW10G21   29.89R HX  81
ASHLAND        PTSUNNY   76  56  49 SW7       29.91S
HAYWARD        PTSUNNY   66  56  70 SE5       29.95F
SIREN          MOSUNNY   79  49  33 N7        29.94R
CUMBERLAND     SUNNY     77  54  44 SW13      29.96S
RICE LAKE      SUNNY     80  53  39 SW9       29.97S HX  80
CHETEK         MOSUNNY   78  58  49 MISG      29.96R HX  80
LADYSMITH      MOSUNNY   76  58  52 SW10      29.97S
EAU CLAIRE     NOT AVBL
MENOMONIE      SUNNY     80  56  43 W12G18    29.97R HX  80
NEW RICHMOND   MOSUNNY   79  54  41 W12       29.97S HX  80
OSCEOLA        MOSUNNY   82  55  39 W10       29.98S HX  81
$$

WIZ003>005-009-010-017-018-280000-
NORTH CENTRAL WISCONSIN

CITY           SKY/WX    TMP DP  RH WIND       PRES   REMARKS
MANITOWISH WTR PTSUNNY   67  55  64 W13G21    29.97R THUNDER
ARBOR VITAE    TSTM      72  57  59 NW10      29.96R
WOODRUFF       TSTM      72  57  59 NW10      29.96R
RHINELANDER    PTSUNNY   73  55  53 W9        29.97R
EAGLE RIVER    MOSUNNY   69  52  54 W6        29.93S
LAND O LAKES   MOSUNNY   76  49  38 NW9       29.94R
PHILLIPS       MOSUNNY   73  56  54 W5        29.96R
TOMAHAWK       MOSUNNY   74  55  50 W10       29.96R
MEDFORD        SUNNY     73  59  60 W9        29.97S
MERRILL        SUNNY     75  61  60 W15       29.97R
$$

WIZ029-030-035-036-043>047-280000-
CENTRAL WISCONSIN

CITY           SKY/WX    TMP DP  RH WIND       PRES   REMARKS
WAUSAU         SUNNY     75  58  55 W13       29.96R
MOSINEE        MOSUNNY   73  59  60 W13G21    29.98S
MARSHFIELD     SUNNY     76  57  51 W12       29.98S
STEVENS POINT  MOSUNNY   74  56  53 SW8       29.98S
WAUPACA        MOSUNNY   79  56  45 W10G22    29.97S HX  80
WAUTOMA        NOT AVBL
WISC RAPIDS    MOSUNNY   78  55  44 W9        29.99S
CAMP DOUGLAS   NOT AVBL
$$

WIZ011>013-019>022-031-037>040-048>050-280000-
NORTHEAST WISCONSIN

CITY           SKY/WX    TMP DP  RH WIND       PRES   REMARKS
ANTIGO         SUNNY     72  60  67 W13       29.96S
SHAWANO        PTSUNNY   76  59  55 W7        29.94F
OCONTO         MOSUNNY   76  61  60 W9G18     29.94R
STURGEON BAY   PTSUNNY   72  59  64 W12       29.98R
GREEN BAY      SUNNY     76  60  57 W15       29.96R
MANITOWOC      NOT AVBL
APPLETON       MOSUNNY   75  54  46 W13G21    29.97S
CLINTONVILLE   SUNNY     77  55  47 W12       29.95S
OSHKOSH        SUNNY     76  56  49 SW6       29.98S
$$

WIZ032>034-041-042-053>061-280000-
SOUTHWEST WISCONSIN

CITY           SKY/WX    TMP DP  RH WIND       PRES   REMARKS
LA CROSSE      SUNNY     82  58  43 W9        29.98S HX  82
SPARTA         MOSUNNY   78  54  43 W10G16    30.00S
VIROQUA        MOSUNNY   76  58  52 W14       30.03S
BOSCOBEL       SUNNY     79  57  46 W9        30.02S HX  80
PRAIRIE DU CHI SUNNY     78  56  45 SW6       30.02S
PLATTEVILLE    MOSUNNY   76  58  53 W12       30.05S
$$

WIZ056-057-062-063-064-067-068-280000-
SOUTH CENTRAL WISCONSIN

CITY           SKY/WX    TMP DP  RH WIND       PRES   REMARKS
REEDSBURG      MOSUNNY   76  60  57 SW8       30.01S
BARABOO/DELLS  MOSUNNY   75  56  52 W12       30.02S
LONE ROCK      NOT AVBL
MINERAL POINT  MOSUNNY   77  55  47 W9        30.05S
MADISON        MOSUNNY   76  54  46 VRB6      30.02S
MIDDLETON      SUNNY     77  54  45 W9        30.03S
WATERTOWN      SUNNY    N/A N/A N/A W8        30.02S
MONROE         SUNNY     75  55  50 W10       30.05S
JANESVILLE     SUNNY     75  54  46 NW7       30.04R
$$

WIZ051-052-058>065-066-070>072-280000-
SOUTHEAST WISCONSIN

CITY           SKY/WX    TMP DP  RH WIND       PRES   REMARKS
MILWAUKEE      MOSUNNY   67  56  67 E6        30.03R
WAUKESHA       MOSUNNY   72  55  56 W9        30.04R
MILWAUKEE/TIMM SUNNY     73  52  46 NW7G16    30.03R
RACINE         SUNNY     68  55  63 VRB5      30.04S
BURLINGTON     SUNNY     71  53  54 NW6       30.03S
KENOSHA        SUNNY     69  58  67 E6        30.04R
FOND DU LAC    SUNNY     75  56  51 W9        29.99S
SHEBOYGAN      SUNNY     73  58  59 W12       29.99S
WEST BEND      SUNNY     72  54  53 W7        30.01S
JUNEAU         SUNNY     73  55  53 W8G17     30.03S
$$

LSZ147-162-280000-
LAKE SUPERIOR

STATION/POSITION TIME  TEMP    WIND        PRES    WAVE
                       AIR SEA DIR/SP/G            HT/PER
                 (UTC) (F)     (DEG/KT/KT) (MB)    (FT/S)
W MID LAKE BUOY  2150   46 37  240/  8/ 10   N/A     1/ 4
DEVILS ISLAND    2200   74     190/  2/  3   N/A
PORT WING        2240          300/  8/ 15   N/A
SAXON HARBOR     2240   76     210/  8/ 16   N/A
$$

LMZ867-665-643>646-280000-
LAKE MICHIGAN

STATION/POSITION TIME  TEMP    WIND        PRES    WAVE
                       AIR SEA DIR/SP/G            HT/PER
                 (UTC) (F)     (DEG/KT/KT) (MB)    (FT/S)
CHAMBERS ISLAND  2200   65     160/  6/ 13   N/A
N MID LAKE BUOY  2150   45 37  210/ 10/ 12   N/A     2/ 5
NORTHPORT PIER   2100   71     210/  5/ 15   N/A
SISTER BAY       2103   68     230/ 14/ 17   N/A
ALGOMA LAKESHORE 2138          260/  9/ 13   N/A
KEWAUNEE LAKESHO 2100   71     260/  9/ 13   N/A
SHEBOYGAN LAKESH 2200   55     160/  4/  6   N/A
PORT WASHINGTON  2140   61     180/  5/  8   N/A
ATWATER BUOY     2200   55 49  180/  4/  6   N/A
MILWAUKEE LAKESH 2100   60      40/  7/  7   N/A
S MID LAKE BUOY  2150   47 38  280/  8/  8   N/A     1
KENOSHA   LAKESH 2200   58      50/  5/  9   N/A
$$

TC  - TEMPERATURE IN CELSIUS
VSB - VISIBILITY IN STATUTE MILES
WCI - WIND CHILL INDEX
HX  - HEAT INDEX




USA.gov is the U.S. government's official web portal to all federal, state and local government web resources and services.